Location: ??????
(55.2144°N, 38.4882°E)
Time: 06:37:30
(UTC+00:00)

Daily predictions for brighter satellites

Satellite Brightness Start Highest point End
(mag) Time Altitude Azimuth Time Altitude Azimuth Time Altitude Azimuth
NOSS 3-3 (A) 4.0 14:01:16 10° WSW 14:06:47 76° NW 14:13:34 10° NE
GEOS 3 Rocket 4.5 14:02:07 10° NE 14:07:07 42° NNW 14:12:08 10° W
Cosmos 2297 Rocket 4.0 14:03:34 10° WNW 14:07:34 19° NNW 14:11:34 10° NNE
Cosmos 1459 Rocket 4.1 14:01:20 10° S 14:07:35 70° E 14:13:57 10° NNE
Cosmos 1025 Rocket 3.1 14:04:16 10° NNW 14:08:38 85° W 14:12:56 10° S
Cosmos 2100 Rocket 4.0 14:02:43 10° S 14:08:53 77° E 14:15:03 10° NNE
Thor Agena Rocket 3.6 14:04:29 10° SSE 14:09:45 78° ENE 14:15:03 10° NNW
DNEPR-1 R/B 4.3 14:08:03 10° NW 14:12:21 62° SW 14:17:12 10° SSE
SWARM A 4.4 14:09:07 10° N 14:12:24 52° E 14:15:39 10° SSE
CZ-2D R/B 3.3 14:10:27 10° SE 14:13:21 34° ENE 14:16:16 10° N
Geosat FO 4.4 14:11:12 10° ESE 14:13:57 41° NE 14:16:42 10° NNW
Cosmos 1674 Rocket 4.3 14:10:34 10° NNW 14:14:52 57° W 14:19:06 10° S
RESURS DK-1 2.8 14:14:08 10° NNW 14:17:56 39° NE 14:21:42 10° ESE
SAR-Lupe-1 4.3 14:15:39 10° SE 14:19:06 47° ENE 14:22:34 10° N
Meteor 1-28 Rocket 3.0 14:16:28 10° NNE 14:19:49 56° ESE 14:23:08 10° S
Cosmos 1606 1.9 14:17:34 10° SSW 14:20:15 76° WNW 14:22:56 10° N
IGS 5A 3.4 14:16:17 10° SSE 14:20:17 88° ENE 14:24:20 10° NNW
Cosmos 1864 Rocket 4.5 14:15:42 10° S 14:21:46 68° E 14:27:58 10° NNE
IRS-P3 4.3 14:18:20 10° SE 14:23:27 50° ENE 14:28:36 10° N
ATLAS 2AS CENTAUR R/B 3.3 14:17:42 10° WNW 14:24:13 42° N 14:30:12 12° ENE
Cosmos 2221 Rocket 4.1 14:22:42 10° NNW 14:27:11 65° W 14:31:35 10° S
Cosmos 2061 Rocket 4.3 14:23:49 10° SSE 14:29:47 47° E 14:35:44 10° NNE
SAR-Lupe-4 3.5 14:28:02 10° SSE 14:31:36 72° ENE 14:35:12 10° NNW
NOSS 3-3 (C) 4.2 14:28:09 10° WSW 14:33:44 66° NNW 14:40:15 11° NE
YAOGAN 1 3.5 14:30:21 10° ESE 14:33:51 25° ENE 14:37:22 10° N
PSLV R/B 4.4 14:32:41 10° ESE 14:35:58 24° ENE 14:39:15 10° N
Cosmos 1725 Rocket 4.0 14:29:57 10° S 14:36:13 77° E 14:42:33 10° NNE
Cosmos 2344 3.9 14:30:12 10° WNW 14:37:24 55° NNE 14:46:00 11° E
Cosmos 2233 Rocket 4.1 14:31:49 10° S 14:37:59 58° E 14:44:11 10° NNE
SJ-12 3.6 14:35:42 10° SSE 14:39:28 69° ENE 14:43:16 10° N
ARIANE 5 R/B 2.4 14:34:53 10° SSE 14:39:52 82° ENE 14:44:55 10° NNW
Resurs 1-3 4.5 14:36:47 10° ESE 14:40:24 27° ENE 14:44:02 10° N
ARIANE 6 FM1 Upper Stage 3.0 14:39:08 10° WSW 14:43:02 53° NNW 14:46:07 15° NE
CZ-2D R/B 4.0 14:39:28 10° SE 14:43:16 36° ENE 14:47:10 10° N
Cosmos 1340 Rocket 3.7 14:40:10 10° SW 14:43:54 47° WNW 14:47:39 10° N
Cosmos 468 Rocket 4.3 14:39:03 10° NNW 14:44:04 43° NE 14:48:59 10° ESE
Aureole 3 Rocket 4.3 14:43:00 10° SE 14:43:37 13° ESE 14:43:37 13° ESE
Cosmos 2173 Rocket 4.4 14:40:43 10° SSW 14:46:53 66° WNW 14:53:00 10° N
Cosmos 2058 3.6 14:43:51 10° N 14:47:22 29° ENE 14:50:53 10° SE
IRAS Rocket 4.5 14:43:08 10° SE 14:48:25 47° ENE 14:53:41 10° N
SAR-Lupe-3 4.5 14:47:57 22° NE 14:49:06 33° E 14:51:32 10° SSE
Resurs 01 Rocket 3.0 14:49:03 18° ENE 14:49:51 19° NE 14:52:55 10° N
SMAP 3.4 14:47:48 10° S 14:52:26 70° WSW 14:57:08 10° NNW
Cosmos 2227 Rocket 4.1 14:51:53 10° WNW 14:55:48 19° NNW 14:59:44 10° NNE
Cosmos 2082 Rocket 2.3 14:51:08 10° NNW 14:56:40 55° NE 15:02:11 10° SE
SL-08 R/B 4.4 14:51:11 10° S 14:57:17 86° E 15:03:24 10° NNE
Cosmos 1802 Rocket 4.3 14:52:11 10° SSW 14:58:38 75° WNW 15:05:05 10° N
SPOT 1/Viking Rocket 3.5 14:59:23 10° SSE 15:04:29 61° ENE 15:09:37 10° N
Cosmos 2278 Rocket 3.0 15:00:03 10° SSE 15:04:51 29° ESE 15:07:18 21° ENE
Timation 1 Rocket 4.3 14:59:17 10° NW 15:05:17 87° NE 15:11:17 10° SE
Landsat 7 4.0 15:00:54 10° S 15:05:33 73° WSW 15:10:14 10° NNW
Cosmos 1943 Rocket 2.9 15:01:17 10° SSE 15:06:08 31° ESE 15:08:37 22° ENE
AQUARIUS 4.2 15:02:07 10° SSE 15:06:31 82° WSW 15:10:58 10° NNW
Cosmos 407 Rocket 4.0 15:03:57 10° S 15:08:42 37° ESE 15:11:36 20° NE
Cosmos 1782 Rocket 3.6 15:05:02 10° S 15:09:29 88° WNW 15:13:56 10° NNE
Cosmos 1869 3.3 15:06:09 10° SSE 15:09:29 42° E 15:11:07 25° NE
Cosmos 1812 4.5 15:07:08 10° SSE 15:07:20 11° SE 15:07:20 11° SE
Cosmos 2084 Rocket 3.4 15:08:49 10° SW 15:12:56 60° SE 15:14:52 29° ENE
CARTOSAT-1 4.2 15:14:03 29° E 15:14:45 30° ENE 15:18:27 10° N
ATLAS 5 CENTAUR R/B 3.4 15:11:08 10° WNW 15:15:00 34° SW 15:19:39 10° SSE
SJ-7 4.2 15:11:38 10° SE 15:15:13 52° ENE 15:18:50 10° N
SL-16 R/B 3.2 15:11:02 10° NNE 15:17:09 56° WNW 15:23:13 10° SW
Cosmos 1300 Rocket 3.8 15:12:53 10° SSW 15:17:16 70° WNW 15:21:40 10° N
COSMOS 2406 3.4 15:17:38 10° NNW 15:23:12 51° NE 15:26:28 24° ESE
Cosmos 1975 Rocket 3.8 15:19:54 10° NNW 15:24:09 55° W 15:28:24 10° S
Spot 4 Rocket 3.9 15:19:18 10° SSE 15:24:22 75° ENE 15:29:30 10° NNW
Cosmos 2026 Rocket 4.4 15:19:20 10° N 15:24:55 36° ENE 15:28:19 21° ESE
USA 281 3.5 15:22:21 20° ESE 15:26:37 47° NE 15:32:53 10° NNW
Cosmos 2263 Rocket 4.1 15:23:53 10° WNW 15:27:44 18° NNW 15:31:27 10° NNE
ATLAS CENTAUR R/B 1.9 15:24:26 10° WSW 15:27:44 40° NNW 15:29:04 27° NNE
MOS 1 Rocket 3.4 15:24:16 10° S 15:28:34 72° WSW 15:33:06 10° NNW
Cosmos 2151 Rocket 4.2 15:24:40 10° SSE 15:28:25 34° E 15:28:25 34° E
Cosmos 1844 Rocket 4.1 15:25:20 10° W 15:30:19 32° NW 15:35:09 11° NNE
UNK 4.4 15:25:51 10° N 15:30:23 56° WNW 15:34:53 10° SW
COSMO-SKYMED 1 2.8 15:34:14 41° ESE 15:34:14 41° ESE 15:38:01 10° S
SKYMED 2 3.6 15:31:12 19° NNE 15:34:10 57° E 15:38:27 10° S
Cosmos 921 Rocket 4.3 15:31:29 10° SW 15:35:36 39° NW 15:39:48 10° NNE
CZ-4C R/B 2.7 15:30:51 10° W 15:35:38 51° NNW 15:39:10 24° NE
Meteor 2-3 Rocket 4.0 15:30:22 10° N 15:35:51 44° ENE 15:38:23 28° ESE
Cosmos 1867 4.4 15:31:11 10° W 15:36:24 44° NNW 15:39:38 22° NE
Cosmos 1513 Rocket 4.5 15:30:08 10° S 15:36:25 67° E 15:42:48 10° NNE
Cosmos 1763 Rocket 4.1 15:31:24 10° NNW 15:36:32 57° WSW 15:41:35 10° S
Cosmos 540 Rocket 3.9 15:32:20 10° NNW 15:37:26 64° WSW 15:42:29 10° SSE
ISS -1.6 15:42:09 10° SSW 15:43:36 17° S 15:43:36 17° S
BREEZE-M DEB (TANK) 4.4 15:42:28 10° SSW 15:45:28 30° SE 15:46:03 29° SE
Nadezhda 4 Rocket 3.9 15:40:09 10° N 15:46:31 76° ENE 15:52:46 10° SSE
Cosmos 1140 Rocket 3.6 15:41:24 10° SW 15:46:34 72° WNW 15:50:29 18° NNE
Cosmos 1269 Rocket 4.3 15:41:23 10° SW 15:46:38 67° WNW 15:50:57 16° NNE
NOAA 6 3.9 15:44:58 10° SSE 15:50:07 80° ENE 15:55:17 10° NNW
Helios 1A Rocket 4.4 15:54:42 19° S 15:54:42 19° S 15:55:49 10° S
Cosmos 2297 Rocket 4.0 15:50:11 10° NNW 15:53:51 17° N 15:55:01 16° NNE
RESURS DK-1 3.8 15:51:39 10° NW 15:55:21 36° WSW 15:59:01 10° S
Cosmos 1602 4.0 15:54:46 10° NNW 15:57:46 49° W 15:58:11 45° SW
Cosmos 2251 Rocket 3.6 15:53:58 10° S 15:59:06 53° ESE 15:59:28 52° E
Cosmos 2195 Rocket 4.4 15:54:01 10° N 16:00:19 68° ENE 16:06:37 10° SSE
BREEZE M DEB (TANK) 3.8 15:50:43 10° W 16:03:56 53° SSW 16:05:36 37° SE
Cosmos 1862 3.2 16:00:25 10° NNW 16:04:01 69° W 16:04:12 68° WSW
Geosat 4.3 16:01:25 16° SSE 16:05:23 66° WSW 16:10:23 10° NW
SPOT 5 4.3 16:07:36 27° NNE 16:07:36 27° NNE 16:10:28 10° N
Timation 2 Rocket 4.1 15:59:44 10° SSW 16:06:37 77° ESE 16:10:11 31° NE
Cosmos 1428 Rocket 4.4 16:01:48 10° N 16:08:05 88° ENE 16:14:24 10° S
YAOGAN 1 3.3 16:05:18 10° S 16:09:28 53° W 16:13:40 10° NNW
PSLV R/B 4.2 16:07:01 10° S 16:10:58 50° W 16:14:54 10° NNW
Cosmos 841 Rocket 3.4 16:08:48 10° NNW 16:14:05 88° WSW 16:15:36 48° SSE
ATLAS 2AS CENTAUR R/B 2.7 16:09:20 10° NW 16:16:09 65° NNE 16:17:37 52° E
Resurs 1-3 4.4 16:12:03 10° S 16:16:14 49° W 16:20:27 10° NNW
Terra 4.3 16:23:06 10° N 16:23:06 10° N 16:23:10 10° N
ARIANE 6 FM1 Upper Stage 4.0 16:19:10 10° WNW 16:22:10 29° NNW 16:22:10 29° NNW
Cosmos 2058 4.4 16:19:56 10° NNW 16:23:34 35° W 16:27:11 10° SSW
SJ 16-02 3.6 16:20:27 10° S 16:21:10 14° S 16:21:10 14° S
Resurs 01 Rocket 1.9 16:26:28 61° NNW 16:26:28 61° NNW 16:30:09 10° NNW
Cosmos 1536 Rocket 4.4 16:21:31 10° NNW 16:25:49 49° W 16:30:05 10° SSW
Cosmos 44 Rocket 3.9 16:25:10 10° SSW 16:28:34 45° SSW 16:28:34 45° SSW
Cosmos 1464 Rocket 4.1 16:29:42 10° SSW 16:36:00 73° WNW 16:42:16 10° N
Cosmos 1190 Rocket 4.2 16:31:16 10° SSW 16:35:36 61° SSW 16:35:36 61° SSW
Cosmos 2082 Rocket 3.5 16:35:28 10° NW 16:40:36 38° WSW 16:45:21 12° S
Cosmos 2227 Rocket 4.1 16:38:26 10° NNW 16:42:04 17° N 16:42:04 17° N
Cosmos 2034 Rocket 3.9 16:41:28 10° SSW 16:47:41 84° W 16:54:01 10° N
Cosmos 2278 Rocket 2.4 16:42:54 10° SW 16:48:33 68° NW 16:49:10 63° NNW
Cosmos 1943 Rocket 2.4 16:43:57 10° SW 16:49:32 65° NW 16:50:09 60° NNW
Cosmos 407 Rocket 4.3 16:45:33 10° SW 16:50:32 46° NW 16:51:44 39° NNW
Cosmos 2344 3.9 16:44:35 10° NW 16:52:16 73° SW 16:56:03 41° SSE
Cosmos 1092 Rocket 4.2 16:54:43 10° NNW 17:00:58 69° W 17:02:33 50° SSW
ATLAS CENTAUR R/B 4.1 17:01:03 10° WNW 17:01:34 12° NW 17:01:34 12° NW
BREEZE-M DEB (TANK) 4.5 17:02:18 10° WSW 17:04:22 42° SW 17:04:22 42° SW
COSMOS 2406 4.2 17:02:07 10° NW 17:07:25 42° WSW 17:08:32 37° SW
USA 281 3.7 17:09:14 43° SSW 17:11:05 57° WSW 17:17:34 10° NW
Cosmos 2263 Rocket 4.3 17:10:15 10° NNW 17:13:06 17° N 17:13:06 17° N
CZ-4C R/B 3.4 17:19:49 10° WNW 17:24:07 38° NNW 17:24:07 38° NNW
Cosmos 2297 Rocket 4.2 17:34:40 10° NNW 17:36:48 20° N 17:36:48 20° N
ATLAS 2AS CENTAUR R/B 3.8 18:00:29 10° NW 18:05:02 39° W 18:05:02 39° W
ACS3 Solar Sail 4.2 23:11:15 10° NE 23:13:18 15° ENE 23:13:18 15° ENE
CENTAUR R/B 4.4 23:18:14 34° NE 23:18:14 34° NE 23:23:27 10° E
